Location: Newark
(43.4600°N, 5.2486°E)
Time: 21:00:35
(UTC+00:00)

Envisat - Visible Passes

Search period start: 11 December 2019 00:00
Search period end: 21 December 2019 00:00
Orbit: 764 x 766 km, 98.1° (Epoch: 11 December)

Date Brightness Start Highest point End Pass type
(mag) Time Alt. Az. Time Alt. Az. Time Alt. Az.
11 Dec 5.0 05:45:18 10° NNE 05:49:49 31° E 05:54:18 10° SSE visible
11 Dec 3.2 17:00:48 10° SE 17:05:37 46° ENE 17:10:28 10° N visible
11 Dec 5.4 18:40:56 10° SW 18:44:51 22° W 18:48:48 10° NW visible
12 Dec 6.0 05:09:58 10° ENE 05:12:41 14° E 05:15:25 10° ESE visible
12 Dec 4.0 18:02:57 10° S 18:07:50 48° W 18:12:46 10° NNW visible
13 Dec 3.9 06:10:27 10° NNE 06:15:26 54° E 06:20:24 10° S visible
13 Dec 2.9 17:25:57 10° SSE 17:31:01 79° ENE 17:36:08 10° N visible
13 Dec 6.1 19:08:26 10° WSW 19:10:38 13° W 19:12:51 10° WNW visible
14 Dec 5.4 05:34:17 10° NE 05:38:27 25° E 05:42:35 10° SSE visible
14 Dec 3.5 16:49:47 10° SE 16:54:25 37° ENE 16:59:03 10° N visible
14 Dec 5.0 18:29:09 10° SSW 18:33:29 28° W 18:37:50 10° NW visible
15 Dec 6.3 04:59:48 10° ENE 05:01:15 11° E 05:02:42 10° ESE visible
15 Dec 3.5 17:51:31 10° S 17:56:31 61° W 18:01:34 10° NNW visible
16 Dec 4.4 05:59:17 10° NNE 06:04:07 43° E 06:08:55 10° S visible
16 Dec 3.0 17:14:46 10° SSE 17:19:46 63° ENE 17:24:48 10° N visible
16 Dec 5.8 18:56:06 10° SW 18:59:13 16° W 19:02:22 10° NW visible
17 Dec 5.8 05:23:22 10° NE 05:27:05 20° E 05:30:45 10° SE visible
17 Dec 3.8 16:38:51 10° SE 16:43:12 30° ENE 16:47:35 10° N visible
17 Dec 4.6 18:17:30 10° SSW 18:22:07 35° W 18:26:46 10° NNW visible
18 Dec 3.3 06:24:34 10° NNE 06:29:41 75° ESE 06:34:45 10° S visible
18 Dec 3.1 17:40:09 10° S 17:45:14 77° WSW 17:50:20 10° NNW visible
19 Dec 4.8 05:48:09 10° NNE 05:52:47 34° E 05:57:21 10° SSE visible
19 Dec 3.1 17:03:39 10° SE 17:08:32 50° ENE 17:13:26 10° N visible
19 Dec 5.5 18:44:05 10° SW 18:47:49 20° W 18:51:35 10° NW visible
20 Dec 6.0 05:12:37 10° NE 05:15:40 16° E 05:18:43 10° SE visible
20 Dec 4.2 18:05:58 10° S 18:10:47 44° W 18:15:39 10° NNW visible
